SCP
0 0 -0 0 0 0 0 0 0 0 0 0 1 0 0 1 1 0 1 0 0 0 0 0 0 1 1 1 0 0 1 1 1 1 1 1 1 0 0 0 0 1 0 0
-0 0 0 0 0 0 0 0 0 0 0 0 1 1 0 0 0 1 1 0 0 0 0 0 0 0 0 1 0 0 0 0 1 1 1 1 1 1 1 1 0 0 0 0
0 -0 0 0 0 0 0 0 0 0 0 1 1 0 0 0 0 0 0 0 1 1 1 1 0 0 0 0 0 0 0 0 0 1 1 1 1 1 1 1 1 1 1 1
0 0 0 0 0 0 0 0 0 0 1 0 0 0 0 0 0 0 0 0 0 0 0 0 0 0 0 0 0 0 0 0 0 0 0 0 0 0 1 1 1 1 1 1
0 0 0 0 0 0 0 1 0 1 1 0 0 0 0 0 0 0 0 0 0 0 0 0 0 0 0 0 0 0 0 0 0 0 0 0 0 0 0 0 0 0 0 0
0 0 0 0 0 0 0 0 -0 1 1 1 0 0 0 0 0 0 0 0 0 0 0 0 0 0 0 0 0 0 0 0 0 0 0 0 0 0 0 0 0 0 0 0
0 0 0 0 0 0 0 0 0 1 1 1 1 1 0 0 0 0 0 0 0 0 0 0 0 0 0 0 0 0 0 0 0 0 0 0 0 0 0 0 0 0 0 0
0 0 0 0 0 0 0 0 0 1 1 0 0 0 0 0 0 0 0 0 0 0 0 0 0 0 0 0 0 0 0 0 0 0 0 0 0 0 0 0 0 0 0 0
0 0 0 0 0 0 0 0 0 0 0 0 0 0 0 0 0 0 0 0 0 0 0 0 0 0 0 0 0 0 0 0 0 0 0 0 0 0 0 0 0 0 0 0
0 0 0 0 0 0 0 0 0 0 0 0 0 0 0 0 0 0 0 0 0 0 0 0 0 0 0 0 0 0 0 0 0 0 0 0 0 0 0 0 0 0 0 0
0 0 0 0 0 0 0 0 0 0 0 0 0 0 0 0 0 0 0 0 0 0 0 0 0 0 0 0 0 0 0 0 0 0 0 0 0 0 0 0 0 0 0 0
0 0 0 0 0 0 0 0 0 0 0 0 0 0 0 0 0 0 0 0 0 0 0 0 0 0 0 0 0 0 0 0 0 0 0 0 0 0 0 0 0 0 0 0
0 0 0 0 0 0 0 0 0 0 0 0 0 0 0 0 0 0 0 0 0 0 0 0 0 0 0 0 0 0 0 0 0 0 0 0 0 0 0 0 0 0 0 0
-0 0 0 0 0 0 0 0 0 0 0 0 0 0 0 0 0 0 0 0 0 0 0 0 0 0 0 0 0 0 0 0 0 0 0 0 0 0 0 0 0 0 0 0
0 0 -0 0 0 0 0 0 0 0 0 0 0 0 0 0 0 0 0 0 0 0 0 0 0 0 0 0 0 0 0 0 0 0 0 0 0 0 0 0 0 0 0 0
0 0 0 0 -0 0 0 0 0 -0 0 0 0 0 0 0 0 0 0 0 0 0 0 0 0 0 0 0 0 0 0 0 0 0 0 0 0 0 0 0 0 0 0 0
-0 0 0 0 0 0 0 0 0 0 0 0 0 0 0 0 0 0 0 0 0 0 0 0 0 0 0 0 0 0 0 0 0 0 0 0 0 0 0 0 0 0 0 0
0 0 0 0 0 0 0 0 0 0 0 0 0 0 0 0 0 1 0 0 0 0 0 0 0 0 0 0 0 0 0 0 0 0 0 0 0 0 0 0 0 0 0 0
0 0 0 0 0 0 0 0 0 0 0 0 0 0 0 0 0 1 0 0 0 0 0 0 0 0 0 0 0 0 0 0 0 0 0 0 0 0 0 0 0 0 0 0
0 0 0 0 0 0 0 0 0 0 0 0 0 0 0 0 0 1 1 1 0 0 0 0 0 0 0 0 0 0 0 0 0 0 0 0 0 0 0 0 0 0 0 0
0 0 0 0 0 0 0 0 0 0 0 0 0 0 0 0 0 0 0 1 0 0 0 0 0 0 0 0 0 0 0 0 0 0 0 0 0 0 0 0 0 0 0 0
0 0 0 0 0 0 0 0 0 0 0 0 0 0 0 0 0 0 0 0 0 0 0 0 0 0 0 0 0 0 0 0 0 0 0 0 0 0 0 0 0 0 0 0
0 0 0 0 0 0 0 0 0 0 0 0 0 0 0 0 0 0 0 0 0 0 0 0 0 0 0 0 0 0 0 0 0 0 0 0 0 0 0 0 0 0 0 0
0 0 0 0 0 0 0 0 0 0 0 0 0 0 0 0 0 0 0 0 0 0 0 0 0 0 0 0 0 0 0 0 0 0 0 0 0 0 0 0 0 0 0 0
0 0 0 0 0 0 0 0 0 0 0 0 0 0 0 0 0 0 0 0 0 0 0 0 0 0 0 0 0 0 0 0 0 0 0 0 0 0 0 0 0 0 0 0
0 0 0 0 0 0 0 0 0 0 0 0 0 0 0 0 0 0 0 0 0 0 0 0 0 0 0 0 0 0 0 0 0 0 0 0 0 0 0 0 0 0 0 0
0 0 0 0 0 0 0 0 0 0 0 0 0 0 0 0 0 0 0 0 0 0 0 0 0 0 0 0 0 0 0 0 0 0 0 0 0 0 0 0 0 0 0 0
Wind_Speed_500mb
12 35 43 38 42 35 37 39 33 6 22 42 39 36 34 32 29 34 43 41 51 52 54 55 46 39 44 42 40 34 37 36 29 30 29 32 33 32 31 30 27 27 24 24
20 20 33 22 39 31 36 41 30 11 30 6 48 53 44 35 33 32 29 41 43 48 64 51 41 42 40 41 40 35 32 27 24 26 25 23 27 36 37 34 30 25 27 26
20 21 20 12 3 18 16 20 14 16 6 14 37 26 35 35 23 28 35 41 35 44 38 35 34 37 44 41 38 39 50 39 40 30 27 23 27 35 35 35 33 33 30 30
1 22 33 16 33 20 14 14 13 7 13 20 37 38 29 22 29 26 30 36 41 38 39 42 36 32 34 42 37 38 30 30 23 21 25 28 32 31 30 29 29 27 23 23
9 3 16 29 26 20 26 18 10 10 25 22 28 33 24 19 21 26 27 32 35 35 41 44 43 38 35 35 45 41 38 28 23 22 25 25 23 35 31 23 26 31 32 35
7 21 6 14 23 14 19 16 45 23 14 10 7 9 18 27 29 29 26 28 30 28 28 27 32 38 36 35 37 36 31 23 19 19 21 27 24 18 22 26 26 31 31 26
2 9 9 5 6 38 24 10 22 11 6 14 5 22 43 37 32 29 30 33 35 33 31 29 27 27 30 33 37 40 39 37 25 19 22 18 19 21 21 26 28 19 22 21
8 18 8 17 2 5 9 8 16 16 17 31 26 17 29 32 35 37 36 33 33 34 34 32 30 22 25 25 28 32 39 31 26 24 14 18 19 22 18 17 15 14 11 8
16 8 14 18 23 17 13 14 12 10 8 20 13 26 31 35 37 36 36 35 31 30 30 26 22 17 19 17 19 17 18 18 24 24 17 17 20 18 12 17 12 11 9 8
1 15 14 11 16 16 16 18 16 8 3 9 18 31 33 37 33 33 29 24 23 28 22 19 17 11 12 14 13 13 14 16 17 14 15 13 9 10 11 10 14 15 13 15
9 16 10 8 10 8 12 14 15 13 7 7 20 29 30 30 33 32 29 27 25 22 20 18 16 14 12 13 15 12 13 12 10 10 14 21 28 27 28 34 31 22 22 14
3 13 11 18 8 2 2 7 9 9 7 9 15 28 27 30 32 31 29 28 25 22 21 18 14 12 10 10 12 10 7 9 10 10 11 9 17 31 27 19 29 32 29 28
5 8 7 11 7 4 4 1 4 4 5 11 13 23 30 33 27 29 29 27 24 23 19 15 9 3 5 4 9 11 7 11 9 13 12 15 14 8 10 18 18 21 21 22
14 11 11 14 16 8 5 4 6 2 5 8 15 21 26 29 33 40 36 34 32 24 16 11 7 3 5 5 5 7 8 17 10 13 14 15 15 15 12 5 4 10 14 14
17 18 11 14 11 11 8 8 10 12 11 11 14 20 25 28 32 32 33 36 34 28 19 22 16 11 11 8 8 9 6 9 11 12 13 15 12 12 12 13 13 8 6 2
18 16 16 16 14 11 12 13 17 20 18 19 18 20 24 27 27 28 31 33 32 27 19 18 21 24 23 18 17 16 19 26 16 13 12 10 10 11 12 12 11 12 11 7
19 18 16 15 15 14 13 11 11 13 17 21 24 25 26 30 34 32 34 34 32 27 26 22 22 22 23 24 22 15 17 22 27 20 13 13 13 14 14 13 12 11 11 7
14 11 15 15 12 14 14 11 10 10 11 16 23 26 29 33 35 36 35 33 34 30 28 28 26 24 21 22 26 25 24 19 18 16 18 17 16 16 14 13 13 11 10 6
15 14 13 14 13 13 12 10 8 6 7 7 13 22 28 34 35 31 35 37 36 33 31 30 32 30 30 29 30 28 26 24 21 22 21 21 23 17 17 17 15 15 14 8
18 15 16 17 14 11 9 9 8 8 7 7 7 10 17 24 29 26 28 32 35 34 35 40 45 34 36 36 30 31 30 31 30 28 27 24 22 21 21 21 18 15 14 13
24 20 18 18 16 13 9 8 7 7 8 9 11 14 13 15 16 19 25 30 31 37 41 38 41 36 38 43 43 38 36 36 37 37 35 32 29 28 24 19 18 19 17 15
31 26 21 19 17 16 14 12 11 11 14 15 16 17 20 22 24 25 28 30 32 30 31 36 40 46 44 49 48 42 44 51 45 41 40 36 33 30 29 26 22 19 19 18
36 31 26 23 20 18 17 15 14 15 17 17 16 16 18 21 23 25 27 22 23 31 38 40 45 51 53 57 48 49 45 44 53 50 44 42 38 35 32 29 26 25 23 20
37 34 29 23 21 21 20 15 13 11 9 8 8 10 12 14 16 17 21 27 31 41 36 38 39 51 54 52 54 52 46 41 53 65 54 44 43 39 35 32 29 25 23 24
39 32 28 26 24 19 16 15 13 11 8 8 7 6 5 6 4 9 13 17 25 30 30 40 45 51 57 52 50 57 54 46 47 47 55 48 42 40 37 31 28 27 25 24
34 32 25 21 17 18 16 14 19 9 7 6 3 2 4 6 6 8 10 20 26 34 37 39 41 48 51 55 58 57 62 50 51 50 56 70 74 56 44 42 37 28 26 28
32 23 17 21 21 17 16 17 16 15 10 7 4 3 2 2 8 11 18 27 35 45 33 35 40 45 45 49 52 58 55 57 54 52 57 74 74 60 55 41 41 43 32 30
Wind_Direction_500mb
121 257 273 192 216 224 230 251 230 349 25 154 157 144 154 157 154 169 172 169 168 171 175 178 183 192 199 208 224 231 222 213 215 208 208 210 213 212 229 226 226 220 227 230
156 240 280 195 198 209 217 243 253 113 241 92 119 125 142 153 168 169 154 169 185 176 179 187 215 204 200 205 227 215 212 206 208 215 208 208 223 222 214 215 225 228 226 228
253 181 215 209 215 256 237 215 311 349 10 8 97 114 116 120 133 159 163 168 161 180 196 197 196 198 204 212 217 239 235 234 230 231 233 241 241 225 218 213 215 220 221 223
332 312 227 108 339 345 16 19 357 320 54 138 101 101 103 126 134 137 142 167 176 179 174 187 197 207 211 207 218 206 206 212 220 234 238 244 231 219 209 206 211 222 219 225
257 274 282 138 93 345 333 59 28 3 86 98 106 105 105 130 145 147 144 166 166 175 185 193 200 207 194 197 201 206 216 225 231 231 233 233 231 221 206 207 211 214 215 228
242 276 238 90 356 337 295 179 356 18 101 103 137 224 134 137 129 124 127 147 158 165 167 170 182 187 195 198 203 205 211 190 193 206 200 204 196 213 210 208 217 226 223 231
332 219 94 291 323 314 256 38 354 39 338 119 163 33 132 137 135 132 131 131 137 135 137 142 156 170 179 183 180 175 171 168 161 166 172 179 183 204 201 202 224 226 224 228
223 267 72 317 189 329 3 20 10 13 45 91 99 121 139 143 139 136 132 127 127 125 122 121 124 133 144 160 172 179 175 163 169 165 142 172 167 158 159 182 189 190 165 120
347 56 105 70 81 66 28 37 20 354 52 107 121 144 150 146 142 141 139 133 129 122 124 124 126 137 138 139 146 156 162 163 155 153 152 165 173 170 162 156 171 175 175 172
324 138 109 96 85 68 44 36 25 24 84 132 135 147 146 141 142 142 136 127 130 122 118 127 132 152 150 152 158 160 175 185 192 181 153 140 133 147 157 185 197 203 205 203
194 149 141 153 96 52 44 36 38 48 89 148 154 162 160 159 156 151 150 146 139 133 129 121 123 128 145 155 143 152 154 161 162 174 156 185 189 177 211 199 187 176 197 210
45 92 178 110 136 113 43 38 37 54 91 125 158 166 169 164 162 161 158 149 140 135 134 128 126 132 147 147 147 144 161 153 167 186 173 186 197 218 233 219 217 223 235 250
356 169 205 129 177 183 199 59 70 79 113 149 158 173 178 171 162 165 162 155 148 138 136 128 128 150 146 171 166 162 158 209 188 178 195 194 200 204 238 227 231 235 240 249
214 199 212 207 216 196 200 215 189 174 159 167 163 175 171 174 188 182 173 168 160 151 136 115 131 220 280 234 239 212 202 212 185 205 204 200 204 204 212 219 264 251 241 237
208 211 251 166 206 217 242 249 235 228 205 187 185 183 188 189 189 190 192 198 199 205 241 266 243 251 272 224 231 214 220 221 215 215 208 197 197 197 195 195 181 197 310 337
204 205 215 221 238 235 250 250 247 251 233 220 206 207 201 199 197 200 198 198 201 218 225 230 238 235 241 230 218 212 200 210 190 220 225 195 202 200 195 188 181 176 185 182
192 197 210 222 226 231 237 245 249 254 256 249 228 221 219 215 202 200 208 209 205 203 202 208 207 210 219 218 210 206 218 225 195 192 210 201 210 210 206 197 192 186 219 225
199 199 212 222 226 211 214 221 236 243 248 244 240 232 224 222 224 214 209 209 208 207 207 208 215 214 222 213 197 201 206 219 199 203 207 210 206 210 205 200 197 199 228 224
190 196 201 199 198 201 201 209 224 245 262 267 238 228 228 231 230 225 216 207 210 212 217 215 214 213 214 212 200 199 207 208 212 207 213 210 208 205 205 198 199 196 193 213
183 183 184 184 188 197 205 219 231 238 244 252 248 236 230 227 227 223 221 223 225 229 235 221 225 221 215 218 221 205 209 211 214 212 213 216 209 208 209 195 194 205 202 199
192 188 187 189 189 192 204 215 225 239 247 261 260 256 252 245 243 237 237 238 238 244 241 243 224 228 223 223 223 209 214 218 216 216 215 215 211 210 214 211 204 205 206 207
200 199 197 197 201 210 214 224 245 253 264 266 268 268 266 265 265 259 257 257 253 259 249 243 240 230 225 225 220 227 224 218 222 225 222 221 213 213 212 214 213 212 213 214
204 204 206 212 219 216 203 229 239 253 262 264 264 265 267 265 263 268 269 262 261 260 258 255 244 240 236 225 226 228 228 226 222 221 220 223 218 216 214 214 213 215 218 216
203 205 209 211 213 207 208 225 237 230 229 248 262 272 276 277 268 266 267 268 273 269 264 251 257 246 243 238 228 224 225 228 220 215 208 215 223 220 217 215 215 217 225 226
197 192 190 188 187 201 212 204 203 214 227 257 275 278 337 307 304 295 301 300 298 296 276 263 257 254 247 237 225 220 226 216 217 223 207 216 215 214 212 213 219 227 231 234
170 163 167 189 208 197 200 211 223 199 221 241 247 275 277 297 7 27 352 324 330 311 298 276 258 253 239 233 230 229 224 215 223 219 216 214 216 207 211 213 219 221 229 241
155 154 185 209 201 205 218 214 219 208 206 222 242 309 325 306 301 326 333 335 332 324 317 291 249 248 242 233 230 229 229 229 232 236 241 231 224 212 217 212 217 233 242 251
Wind_Speed_850mb
12 35 43 38 42 35 37 39 33 6 22 42 39 36 34 32 29 34 43 41 51 52 54 55 46 39 44 42 40 34 37 36 29 30 29 32 33 32 31 30 27 27 24 24
20 20 33 22 39 31 36 41 30 11 30 6 48 53 44 35 33 32 29 41 43 48 64 51 41 42 40 41 40 35 32 27 24 26 25 23 27 36 37 34 30 25 27 26
20 21 20 12 3 18 16 20 14 16 6 14 37 26 35 35 23 28 35 41 35 44 38 35 34 37 44 41 38 39 50 39 40 30 27 23 27 35 35 35 33 33 30 30
1 22 33 16 33 20 14 14 13 7 13 20 37 38 29 22 29 26 30 36 41 38 39 42 36 32 34 42 37 38 30 30 23 21 25 28 32 31 30 29 29 27 23 23
9 3 16 29 26 20 26 18 10 10 25 22 28 33 24 19 21 26 27 32 35 35 41 44 43 38 35 35 45 41 38 28 23 22 25 25 23 35 31 23 26 31 32 35
7 21 6 14 23 14 19 16 45 23 14 10 7 9 18 27 29 29 26 28 30 28 28 27 32 38 36 35 37 36 31 23 19 19 21 27 24 18 22 26 26 31 31 26
2 9 9 5 6 38 24 10 22 11 6 14 5 22 43 37 32 29 30 33 35 33 31 29 27 27 30 33 37 40 39 37 25 19 22 18 19 21 21 26 28 19 22 21
8 18 8 17 2 5 9 8 16 16 17 31 26 17 29 32 35 37 36 33 33 34 34 32 30 22 25 25 28 32 39 31 26 24 14 18 19 22 18 17 15 14 11 8
16 8 14 18 23 17 13 14 12 10 8 20 13 26 31 35 37 36 36 35 31 30 30 26 22 17 19 17 19 17 18 18 24 24 17 17 20 18 12 17 12 11 9 8
1 15 14 11 16 16 16 18 16 8 3 9 18 31 33 37 33 33 29 24 23 28 22 19 17 11 12 14 13 13 14 16 17 14 15 13 9 10 11 10 14 15 13 15
9 16 10 8 10 8 12 14 15 13 7 7 20 29 30 30 33 32 29 27 25 22 20 18 16 14 12 13 15 12 13 12 10 10 14 21 28 27 28 34 31 22 22 14
3 13 11 18 8 2 2 7 9 9 7 9 15 28 27 30 32 31 29 28 25 22 21 18 14 12 10 10 12 10 7 9 10 10 11 9 17 31 27 19 29 32 29 28
5 8 7 11 7 4 4 1 4 4 5 11 13 23 30 33 27 29 29 27 24 23 19 15 9 3 5 4 9 11 7 11 9 13 12 15 14 8 10 18 18 21 21 22
14 11 11 14 16 8 5 4 6 2 5 8 15 21 26 29 33 40 36 34 32 24 16 11 7 3 5 5 5 7 8 17 10 13 14 15 15 15 12 5 4 10 14 14
17 18 11 14 11 11 8 8 10 12 11 11 14 20 25 28 32 32 33 36 34 28 19 22 16 11 11 8 8 9 6 9 11 12 13 15 12 12 12 13 13 8 6 2
18 16 16 16 14 11 12 13 17 20 18 19 18 20 24 27 27 28 31 33 32 27 19 18 21 24 23 18 17 16 19 26 16 13 12 10 10 11 12 12 11 12 11 7
19 18 16 15 15 14 13 11 11 13 17 21 24 25 26 30 34 32 34 34 32 27 26 22 22 22 23 24 22 15 17 22 27 20 13 13 13 14 14 13 12 11 11 7
14 11 15 15 12 14 14 11 10 10 11 16 23 26 29 33 35 36 35 33 34 30 28 28 26 24 21 22 26 25 24 19 18 16 18 17 16 16 14 13 13 11 10 6
15 14 13 14 13 13 12 10 8 6 7 7 13 22 28 34 35 31 35 37 36 33 31 30 32 30 30 29 30 28 26 24 21 22 21 21 23 17 17 17 15 15 14 8
18 15 16 17 14 11 9 9 8 8 7 7 7 10 17 24 29 26 28 32 35 34 35 40 45 34 36 36 30 31 30 31 30 28 27 24 22 21 21 21 18 15 14 13
24 20 18 18 16 13 9 8 7 7 8 9 11 14 13 15 16 19 25 30 31 37 41 38 41 36 38 43 43 38 36 36 37 37 35 32 29 28 24 19 18 19 17 15
31 26 21 19 17 16 14 12 11 11 14 15 16 17 20 22 24 25 28 30 32 30 31 36 40 46 44 49 48 42 44 51 45 41 40 36 33 30 29 26 22 19 19 18
36 31 26 23 20 18 17 15 14 15 17 17 16 16 18 21 23 25 27 22 23 31 38 40 45 51 53 57 48 49 45 44 53 50 44 42 38 35 32 29 26 25 23 20
37 34 29 23 21 21 20 15 13 11 9 8 8 10 12 14 16 17 21 27 31 41 36 38 39 51 54 52 54 52 46 41 53 65 54 44 43 39 35 32 29 25 23 24
39 32 28 26 24 19 16 15 13 11 8 8 7 6 5 6 4 9 13 17 25 30 30 40 45 51 57 52 50 57 54 46 47 47 55 48 42 40 37 31 28 27 25 24
34 32 25 21 17 18 16 14 19 9 7 6 3 2 4 6 6 8 10 20 26 34 37 39 41 48 51 55 58 57 62 50 51 50 56 70 74 56 44 42 37 28 26 28
32 23 17 21 21 17 16 17 16 15 10 7 4 3 2 2 8 11 18 27 35 45 33 35 40 45 45 49 52 58 55 57 54 52 57 74 74 60 55 41 41 43 32 30
Wind_Direction_850mb
121 257 273 192 216 224 230 251 230 349 25 154 157 144 154 157 154 169 172 169 168 171 175 178 183 192 199 208 224 231 222 213 215 208 208 210 213 212 229 226 226 220 227 230
156 240 280 195 198 209 217 243 253 113 241 92 119 125 142 153 168 169 154 169 185 176 179 187 215 204 200 205 227 215 212 206 208 215 208 208 223 222 214 215 225 228 226 228
253 181 215 209 215 256 237 215 311 349 10 8 97 114 116 120 133 159 163 168 161 180 196 197 196 198 204 212 217 239 235 234 230 231 233 241 241 225 218 213 215 220 221 223
332 312 227 108 339 345 16 19 357 320 54 138 101 101 103 126 134 137 142 167 176 179 174 187 197 207 211 207 218 206 206 212 220 234 238 244 231 219 209 206 211 222 219 225
257 274 282 138 93 345 333 59 28 3 86 98 106 105 105 130 145 147 144 166 166 175 185 193 200 207 194 197 201 206 216 225 231 231 233 233 231 221 206 207 211 214 215 228
242 276 238 90 356 337 295 179 356 18 101 103 137 224 134 137 129 124 127 147 158 165 167 170 182 187 195 198 203 205 211 190 193 206 200 204 196 213 210 208 217 226 223 231
332 219 94 291 323 314 256 38 354 39 338 119 163 33 132 137 135 132 131 131 137 135 137 142 156 170 179 183 180 175 171 168 161 166 172 179 183 204 201 202 224 226 224 228
223 267 72 317 189 329 3 20 10 13 45 91 99 121 139 143 139 136 132 127 127 125 122 121 124 133 144 160 172 179 175 163 169 165 142 172 167 158 159 182 189 190 165 120
347 56 105 70 81 66 28 37 20 354 52 107 121 144 150 146 142 141 139 133 129 122 124 124 126 137 138 139 146 156 162 163 155 153 152 165 173 170 162 156 171 175 175 172
324 138 109 96 85 68 44 36 25 24 84 132 135 147 146 141 142 142 136 127 130 122 118 127 132 152 150 152 158 160 175 185 192 181 153 140 133 147 157 185 197 203 205 203
194 149 141 153 96 52 44 36 38 48 89 148 154 162 160 159 156 151 150 146 139 133 129 121 123 128 145 155 143 152 154 161 162 174 156 185 189 177 211 199 187 176 197 210
45 92 178 110 136 113 43 38 37 54 91 125 158 166 169 164 162 161 158 149 140 135 134 128 126 132 147 147 147 144 161 153 167 186 173 186 197 218 233 219 217 223 235 250
356 169 205 129 177 183 199 59 70 79 113 149 158 173 178 171 162 165 162 155 148 138 136 128 128 150 146 171 166 162 158 209 188 178 195 194 200 204 238 227 231 235 240 249
214 199 212 207 216 196 200 215 189 174 159 167 163 175 171 174 188 182 173 168 160 151 136 115 131 220 280 234 239 212 202 212 185 205 204 200 204 204 212 219 264 251 241 237
208 211 251 166 206 217 242 249 235 228 205 187 185 183 188 189 189 190 192 198 199 205 241 266 243 251 272 224 231 214 220 221 215 215 208 197 197 197 195 195 181 197 310 337
204 205 215 221 238 235 250 250 247 251 233 220 206 207 201 199 197 200 198 198 201 218 225 230 238 235 241 230 218 212 200 210 190 220 225 195 202 200 195 188 181 176 185 182
192 197 210 222 226 231 237 245 249 254 256 249 228 221 219 215 202 200 208 209 205 203 202 208 207 210 219 218 210 206 218 225 195 192 210 201 210 210 206 197 192 186 219 225
199 199 212 222 226 211 214 221 236 243 248 244 240 232 224 222 224 214 209 209 208 207 207 208 215 214 222 213 197 201 206 219 199 203 207 210 206 210 205 200 197 199 228 224
190 196 201 199 198 201 201 209 224 245 262 267 238 228 228 231 230 225 216 207 210 212 217 215 214 213 214 212 200 199 207 208 212 207 213 210 208 205 205 198 199 196 193 213
183 183 184 184 188 197 205 219 231 238 244 252 248 236 230 227 227 223 221 223 225 229 235 221 225 221 215 218 221 205 209 211 214 212 213 216 209 208 209 195 194 205 202 199
192 188 187 189 189 192 204 215 225 239 247 261 260 256 252 245 243 237 237 238 238 244 241 243 224 228 223 223 223 209 214 218 216 216 215 215 211 210 214 211 204 205 206 207
200 199 197 197 201 210 214 224 245 253 264 266 268 268 266 265 265 259 257 257 253 259 249 243 240 230 225 225 220 227 224 218 222 225 222 221 213 213 212 214 213 212 213 214
204 204 206 212 219 216 203 229 239 253 262 264 264 265 267 265 263 268 269 262 261 260 258 255 244 240 236 225 226 228 228 226 222 221 220 223 218 216 214 214 213 215 218 216
203 205 209 211 213 207 208 225 237 230 229 248 262 272 276 277 268 266 267 268 273 269 264 251 257 246 243 238 228 224 225 228 220 215 208 215 223 220 217 215 215 217 225 226
197 192 190 188 187 201 212 204 203 214 227 257 275 278 337 307 304 295 301 300 298 296 276 263 257 254 247 237 225 220 226 216 217 223 207 216 215 214 212 213 219 227 231 234
170 163 167 189 208 197 200 211 223 199 221 241 247 275 277 297 7 27 352 324 330 311 298 276 258 253 239 233 230 229 224 215 223 219 216 214 216 207 211 213 219 221 229 241
155 154 185 209 201 205 218 214 219 208 206 222 242 309 325 306 301 326 333 335 332 324 317 291 249 248 242 233 230 229 229 229 232 236 241 231 224 212 217 212 217 233 242 251